Weather History for Cork, Ireland

Change the Weather History Date:

Tuesday, March 4, 2014

  Actual Average Record
Temperature  
Mean Temperature 42 °F -  
Max Temperature 47 °F 50 °F 51 °F (2003)
Min Temperature 36 °F 38 °F 26 °F (2001)
Degree Days  
Heating Degree Days 24    
Moisture  
Dew Point 38 °F    
Average Humidity 85    
Maximum Humidity 94    
Minimum Humidity 71    
Precipitation  
Precipitation 0.08 in 0.12 in - ()
Sea Level Pressure  
Sea Level Pressure 29.64 in    
Wind  
Wind Speed 8 mph ()    
Max Wind Speed 16 mph    
Max Gust Speed -    
Visibility 7.8 miles    
Events Rain    
Averages and records for this station are not official NWS values.
T = Trace of Precipitation, MM = Missing Value Source: Averaged Metar Reports

Daily Weather History Graph

Daily Weather History Graph

Search for Another Location

Airport:

Trip Planner

Search our weather history database for the weather conditions in past years. The results will help you decide how hot, cold, wet, or windy it might be!

Date:

Astronomy

Mar. 04, 2014 Rise Set
Actual Time 7:13 AM GMT 6:18 PM GMT
Civil Twilight 6:39 AM GMT 6:52 PM GMT
Nautical Twilight 6:00 AM GMT 7:31 PM GMT
Astronomical Twilight 5:21 AM GMT 8:11 PM GMT
Moon 8:22 AM GMT (3/4) 10:44 PM GMT (3/4)
Length of Visible Light 12h 13m
Length of Day
11h 05m
Waxing Crescent, 13% of the Moon is Illuminated
Mar 4
Waxing Crescent
Mar 8
First Quarter
Mar 16
Full
Mar 24
Last Quarter
Mar 30
New

Hourly Weather History & Observations

Time (GMT) Temp. Windchill Dew Point Humidity Pressure Visibility Wind Dir Wind Speed Gust Speed Precip Events Conditions
12:00 AM 41 °F - 36 °F 74% 29.59 in 16 mi West 15.7 mph - -   Partly Cloudy
12:00 AM 41.0 °F 33.1 °F 35.6 °F 81% 29.56 in 6.2 mi West 15.0 mph - N/A   Partly Cloudy
12:30 AM 39.2 °F 32.0 °F 35.6 °F 87% 29.56 in 6.2 mi West 11.5 mph - N/A   Partly Cloudy
1:00 AM 41 °F - 36 °F 77% 29.59 in 16 mi WNW 15.7 mph - -   Scattered Clouds
1:00 AM 41.0 °F 33.1 °F 35.6 °F 81% 29.56 in 6.2 mi WNW 15.0 mph - N/A   Partly Cloudy
1:30 AM 41.0 °F 35.2 °F 37.4 °F 87% 29.56 in 6.2 mi West 9.2 mph - N/A   Scattered Clouds
2:00 AM 41 °F - 36 °F 78% 29.60 in 16 mi West 11.2 mph - -   Mostly Cloudy
2:00 AM 41.0 °F 34.7 °F 37.4 °F 87% 29.56 in 6.2 mi West 10.4 mph - N/A   Mostly Cloudy
2:30 AM 37.4 °F 31.4 °F 33.8 °F 87% 29.56 in 6.2 mi WSW 8.1 mph - N/A   Partly Cloudy
3:00 AM 41 °F - 36 °F 77% 29.59 in 16 mi West 13.4 mph - -   Scattered Clouds
3:00 AM 41.0 °F 33.5 °F 35.6 °F 81% 29.56 in 6.2 mi West 13.8 mph - N/A   Scattered Clouds
3:30 AM 39.2 °F 32.0 °F 35.6 °F 87% 29.56 in 6.2 mi West 11.5 mph - N/A   Scattered Clouds
4:00 AM 38 °F - 35 °F 82% 29.59 in 16 mi SW 6.7 mph - -   Scattered Clouds
4:00 AM 37.4 °F 32.8 °F 33.8 °F 87% 29.56 in 6.2 mi SW 5.8 mph - N/A   Mostly Cloudy
4:30 AM 37.4 °F 30.8 °F 35.6 °F 93% 29.56 in 6.2 mi WSW 9.2 mph - N/A   Scattered Clouds
5:00 AM 38 °F - 35 °F 87% 29.60 in 16 mi WSW 8.9 mph - -   Scattered Clouds
5:00 AM 37.4 °F 30.8 °F 35.6 °F 93% 29.56 in 6.2 mi WSW 9.2 mph - N/A   Mostly Cloudy
5:30 AM 37.4 °F 32.1 °F 35.6 °F 93% 29.56 in 6.2 mi SW 6.9 mph - N/A   Mostly Cloudy
6:00 AM 38 °F - 36 °F 89% 29.59 in 16 mi WSW 11.2 mph - -   Mostly Cloudy
6:00 AM 39.2 °F 32.5 °F 35.6 °F 87% 29.56 in 6.2 mi WSW 10.4 mph - N/A   Mostly Cloudy
6:30 AM 39.2 °F 34.2 °F 37.4 °F 93% 29.56 in 6.2 mi WSW 6.9 mph - N/A   Mostly Cloudy
7:00 AM 41 °F - 38 °F 83% 29.57 in 16 mi WSW 8.9 mph - -   Mostly Cloudy
7:00 AM 41.0 °F 35.8 °F 37.4 °F 87% 29.53 in 6.2 mi WSW 8.1 mph - N/A   Mostly Cloudy
7:30 AM 39.2 °F 35.9 °F 37.4 °F 93% 29.53 in 6.2 mi SSW 4.6 mph - N/A   Mostly Cloudy
8:00 AM 39 °F - 37 °F 88% 29.57 in 25 mi South 4.5 mph - -   Scattered Clouds
8:00 AM 39.2 °F 35.9 °F 37.4 °F 93% 29.53 in 6.2 mi South 4.6 mph - N/A   Mostly Cloudy
8:30 AM 39.2 °F 35.9 °F 37.4 °F 93% 29.53 in 6.2 mi SSW 4.6 mph - N/A   Mostly Cloudy
9:00 AM 40 °F - 38 °F 92% 29.57 in 11 mi SW 4.5 mph - - Rain Light Rain
9:00 AM 41.0 °F 39.0 °F 39.2 °F 93% 29.53 in 6.2 mi SW 3.5 mph - N/A Rain Light Rain
9:30 AM 41.0 °F - 39.2 °F 93% 29.53 in 6.2 mi SSE 1.2 mph - N/A Rain Light Rain
10:00 AM 41 °F - 40 °F 94% 29.58 in 10 mi ESE 2.2 mph - - Rain Light Rain
10:00 AM 41.0 °F - 39.2 °F 93% 29.53 in 6.2 mi ESE 2.3 mph - N/A Rain Light Rain
10:30 AM 42.8 °F 41.1 °F 41.0 °F 93% 29.53 in 6.2 mi SE 3.5 mph - N/A Rain Light Rain
11:00 AM 42 °F - 41 °F 94% 29.57 in 10 mi ESE 6.7 mph - - Rain Light Rain
11:00 AM 42.8 °F 39.3 °F 41.0 °F 93% 29.53 in 6.2 mi ESE 5.8 mph - N/A Rain Light Rain
11:30 AM 42.8 °F 39.3 °F 41.0 °F 93% 29.53 in 6.2 mi ESE 5.8 mph - N/A Rain Light Rain
12:00 PM 43 °F - 41 °F 91% 29.56 in 11 mi ESE 6.7 mph - - Rain Light Rain
12:00 PM 42.8 °F 38.6 °F 41.0 °F 93% 29.53 in 6.2 mi ESE 6.9 mph - N/A   Mostly Cloudy
12:30 PM 44.6 °F 40.7 °F 41.0 °F 87% 29.53 in 6.2 mi ESE 6.9 mph - N/A   Mostly Cloudy
1:00 PM 45 °F - 40 °F 78% 29.58 in 28 mi ESE 6.7 mph - -   Mostly Cloudy
1:00 PM 44.6 °F 41.4 °F 41.0 °F 87% 29.56 in 6.2 mi ESE 5.8 mph - N/A   Mostly Cloudy
1:30 PM 44.6 °F 40.7 °F 41.0 °F 87% 29.53 in 6.2 mi ESE 6.9 mph - N/A   Mostly Cloudy
2:00 PM 45 °F - 40 °F 78% 29.59 in 31 mi East 6.7 mph - -   Mostly Cloudy
2:00 PM 44.6 °F 40.7 °F 41.0 °F 87% 29.56 in 6.2 mi East 6.9 mph - N/A   Mostly Cloudy
2:30 PM 46.4 °F 45.2 °F 41.0 °F 81% 29.59 in 6.2 mi SE 3.5 mph - N/A   Mostly Cloudy
3:00 PM 46 °F - 40 °F 72% 29.64 in 31 mi SSE 2.2 mph - -   Mostly Cloudy
3:00 PM 46.4 °F - 39.2 °F 76% 29.62 in 6.2 mi SSE 1.2 mph - N/A   Mostly Cloudy
3:30 PM 46.4 °F 43.5 °F 41.0 °F 81% 29.59 in 6.2 mi ENE 5.8 mph - N/A   Mostly Cloudy
4:00 PM 46 °F - 41 °F 75% 29.64 in 31 mi East 6.7 mph - -   Mostly Cloudy
4:00 PM 46.4 °F 43.5 °F 41.0 °F 81% 29.62 in 6.2 mi East 5.8 mph - N/A   Scattered Clouds
4:30 PM 46.4 °F 42.9 °F 41.0 °F 81% 29.65 in 6.2 mi NE 6.9 mph - N/A   Mostly Cloudy
5:00 PM 46 °F - 40 °F 73% 29.69 in 31 mi NE 4.5 mph - -   Mostly Cloudy
5:00 PM 46.4 °F 44.3 °F 41.0 °F 81% 29.68 in 6.2 mi NE 4.6 mph - N/A   Mostly Cloudy
5:30 PM 46.4 °F 44.3 °F 39.2 °F 76% 29.71 in 6.2 mi NNW 4.6 mph - N/A   Mostly Cloudy
6:00 PM 46 °F - 40 °F 71% 29.75 in 31 mi NNW 2.2 mph - -   Partly Cloudy
6:00 PM 46.4 °F - 39.2 °F 76% 29.74 in 6.2 mi NNW 1.2 mph - N/A   Scattered Clouds
6:30 PM 44.6 °F - 39.2 °F 81% 29.74 in 6.2 mi Calm Calm - N/A   Scattered Clouds
7:00 PM 44 °F - 40 °F 79% 29.79 in 28 mi NNW 2.2 mph - -   Mostly Cloudy
7:00 PM 44.6 °F - 39.2 °F 81% 29.77 in 6.2 mi NNW 2.3 mph - N/A   Mostly Cloudy
7:30 PM 42.8 °F 41.1 °F 39.2 °F 87% 29.77 in 6.2 mi SW 3.5 mph - N/A   Mostly Cloudy
8:00 PM 44 °F - 40 °F 79% 29.81 in 25 mi WSW 4.5 mph - -   Mostly Cloudy
8:00 PM 44.6 °F 43.1 °F 39.2 °F 81% 29.77 in 6.2 mi WSW 3.5 mph - N/A   Mostly Cloudy
8:30 PM 42.8 °F 38.6 °F 39.2 °F 87% 29.80 in 6.2 mi West 6.9 mph - N/A   Scattered Clouds
9:00 PM 43 °F - 39 °F 81% 29.85 in 25 mi West 6.7 mph - -   Partly Cloudy
9:00 PM 42.8 °F 39.3 °F 39.2 °F 87% 29.83 in 6.2 mi West 5.8 mph - N/A   Scattered Clouds
9:30 PM 42.8 °F 38.6 °F 39.2 °F 87% 29.86 in 6.2 mi WNW 6.9 mph - N/A   Partly Cloudy
10:00 PM 42 °F - 38 °F 83% 29.90 in 25 mi WNW 6.7 mph - -   Scattered Clouds
10:00 PM 42.8 °F 38.6 °F 39.2 °F 87% 29.86 in 6.2 mi WNW 6.9 mph - N/A   Partly Cloudy
10:30 PM 41.0 °F 37.1 °F 39.2 °F 93% 29.86 in 6.2 mi NW 5.8 mph - N/A   Partly Cloudy
11:00 PM 41 °F - 38 °F 85% 29.92 in 22 mi NW 6.7 mph - -   Scattered Clouds
11:00 PM 41.0 °F 37.1 °F 37.4 °F 87% 29.89 in 6.2 mi NW 5.8 mph - N/A   Partly Cloudy
11:30 PM 41.0 °F 37.1 °F 39.2 °F 93% 29.89 in 6.2 mi NW 5.8 mph - N/A   Partly Cloudy